Regional Weather Roundup
Issued by NWS

Home | Current Version | Previous Version | Graphics & Text | Print | Product List | Glossary On
Versions: 1 2 3 4 5 6 7 8 9 10 11 12 13 14 15 16 17 18 19 20 21 22 23 24 25 26 27 28 29 30 31 32 33 34 35 36 37 38 39 40 41 42 43 44 45 46 47 48 49 50
000
ASUS44 KMEG 011610
RWRTN
TENNESSEE HOURLY STATE WEATHER ROUNDUP
NATIONAL WEATHER SERVICE MEMPHIS TN
1000 AM CST SUN FEB 01 2015

TNZ002-004-019-021-049-052-054-088>092-011700-
WEST TENNESSEE

CITY           SKY/WX    TMP DP  RH WIND       PRES   REMARKS
MEMPHIS INTL   RAIN      56  53  90 SW17G30   29.82F
NWS MEMPHIS      N/A     54 N/A N/A MISG        N/A
JACKSON        LGT RAIN  51  47  86 S17G23    29.83F
DYERSBURG      CLOUDY    48  37  66 S6G17     29.81F
UNION CITY     CLOUDY    46  46 100 S10       29.79S
PARIS          CLOUDY    45  43  93 S20G30    29.80F
LEXINGTON      CLOUDY    46  45  93 S8        29.86F
SAVANNAH       CLOUDY    46  46 100 S14       29.89F
$$

TNZ008-025-027-028-033-062-065-066-011700-
NORTH MIDDLE TENNESSEE

CITY           SKY/WX    TMP DP  RH WIND       PRES   REMARKS
NASHVILLE      LGT RAIN  45  38  76 S21G26    29.93F
CLARKSVILLE    LGT RAIN  44  40  85 S14G22    29.84F
SMYRNA         LGT RAIN  45  38  76 S17       29.95F
COOKEVILLE     PTSUNNY   46  34  61 S10       30.02F
CROSSVILLE     CLOUDY    47  28  47 S12G21    30.06F
$$

TNZ061-075-076-078-094-096-097-011700-
SOUTH MIDDLE TENNESSEE

CITY           SKY/WX    TMP DP  RH WIND       PRES   REMARKS
FAYETTEVILLE   PTSUNNY   43  36  75 MISG      30.01S
TULLAHOMA      PTSUNNY   46  34  61 S14       30.01F
WINCHESTER     PTSUNNY   48  36  61 SE12      30.03F
MCMINNVILLE    MOSUNNY   50  34  53 S9        29.99F
COLUMBIA       CLOUDY    45  45 100 S15G24    29.91F
SHELBYVILLE    CLOUDY    46  39  76 S9        29.99F
$$

TNZ017-018-042-046-047-011700-
NORTHEAST TENNESSEE

CITY           SKY/WX    TMP DP  RH WIND       PRES   REMARKS
TRI CITIES     PTSUNNY   44  17  33 CALM      30.09F
ELIZABETHTON   MOSUNNY   45  21  39 E3        30.08F
$$

TNZ012-013-036-069-073-074-011700-
CENTRAL EAST TENNESSEE

CITY           SKY/WX    TMP DP  RH WIND       PRES   REMARKS
KNOXVILLE      CLOUDY    41  25  53 S3        30.12S
OAK RIDGE      CLOUDY    43  22  43 W3        30.13F
GATLINBURG     SUNNY     39  23  52 CALM      30.11S
MORRISTOWN     SUNNY     41  19  42 CALM      30.10F
$$

TNZ083-085-099-011700-
SOUTHEAST TENNESSEE

CITY           SKY/WX    TMP DP  RH WIND       PRES   REMARKS
CHATTANOOGA    CLOUDY    47  29  49 S3        30.12F
$$

SKY/WX REPORTED AS FAIR MEANS FEW OR NO CLOUDS BELOW
12 THOUSAND FEET.




USA.gov is the U.S. government's official web portal to all federal, state and local government web resources and services.